Hourly Data Report for October 15, 2015

All times are specified in Local Standard Time (LST). Add 1 hour to adjust for Daylight Saving Time where and when it is observed.

BAKER LAKE A
NUNAVUT

64°17'56.000" N
96°04'40.000" W
18.60 m
2300503
71926
YBK

Download Data

Hourly Data (October 2015)
Hourly Data Report for October 15, 2015
Temp Definition
°C
Dew Point Temp Definition
°C
Rel Hum Definition
%
Wind Dir Definition
10's deg

Wind Spd Definition
km/h
Visibility Definition
km
Stn Press Definition
kPa
Hmdx Definition


Wind Chill Definition


Weather Definition


TIME
00:00 Legend Double Dagger -8.8 -11.8 79 32 31 24.1 101.51   -18 Snow,Blowing Snow
01:00 Legend Double Dagger -8.9 -12.6 75 32 33 24.1 101.53   -18 Snow,Blowing Snow
02:00 Legend Double Dagger -8.8 -11.7 80 31 30 24.1 101.55   -18 Snow,Blowing Snow
03:00 Legend Double Dagger -8.6 -12.3 75 31 33 24.1 101.58   -18 Snow,Blowing Snow
04:00 Legend Double Dagger -9.8 -13.1 77 31 38 24.1 101.63   -20 Snow,Blowing Snow
05:00 Legend Double Dagger -10.5 -13.5 79 32 34 24.1 101.66   -21 Snow,Blowing Snow
06:00 Legend Double Dagger -11.5 -14.0 82 31 26 32.2 101.64   -21 Mainly Clear
07:00 Legend Double Dagger -11.3 -13.8 82 31 29 24.1 101.65   -21 LegendNANA
08:00 Legend Double Dagger -11.1 -13.8 81 30 24 32.2 101.66   -20 LegendNANA
09:00 Legend Double Dagger -9.8 -12.6 80 28 23 32.2 101.69   -18 Snow
10:00 Legend Double Dagger -10.7 -14.0 77 27 23 32.2 101.71   -19 LegendNANA
11:00 Legend Double Dagger -10.9 -14.3 76 27 17 32.2 101.71   -18 Snow
12:00 Legend Double Dagger -10.8 -14.6 74 28 33 32.2 101.63   -21 Snow
13:00 Legend Double Dagger -12.4 -15.8 76 29 29 32.2 101.64   -23 LegendNANA
14:00 Legend Double Dagger -11.6 -15.0 76 29 27 32.2 101.66   -21 LegendNANA
15:00 Legend Double Dagger -12.1 -14.7 81 29 21 32.2 101.68   -21 Mainly Clear
16:00 Legend Double Dagger -11.7 -14.3 81 29 26 32.2 101.68   -21 Snow
17:00 Legend Double Dagger -11.5 -14.1 81 30 28 32.2 101.70   -21 Snow
18:00 Legend Double Dagger -11.1 -13.6 82 29 21 24.1 101.73   -19 Snow
19:00 Legend Double Dagger -9.6 -12.3 81 27 22 24.1 101.74   -18 Snow
20:00 Legend Double Dagger -8.5 -11.2 81 28 14 24.1 101.74   -15 Snow
21:00 Legend Double Dagger -8.1 -11.6 76 29 13 24.1 101.74   -14 Snow
22:00 Legend Double Dagger -7.7 -13.0 66 32 22 24.1 101.74   -15 Snow
23:00 Legend Double Dagger -8.0 -11.9 74 31 13 24.1 101.76   -14 Snow

Notes on Data Quality.

Legend

  • E = Estimated
  • M = Missing
  • NA = Not Available
  • ‡ = Partner data that is not subject to review by the National Climate Archives
Date modified: